Weather observations for the past three days for
Baltimore / Martin
| Date | Time (edt) | Wind (kph) | Vis. (km) | Weather | Sky Cond. | Temperature (ºC) | Relative Humidity | Wind Chill (°C) | Heat Index (°C) | Pressure | Precipitation (cm) | ||||||
|---|---|---|---|---|---|---|---|---|---|---|---|---|---|---|---|---|---|
| Air | Dwpt | 6 hour | altimeter (cm) | sea level (mb) | 1 hr | 3 hr | 6 hr | ||||||||||
| Max. | Min. | ||||||||||||||||
| 05 | 02:55 | NW 15 | 16.09 | Mostly Cloudy | BKN110 | 25.1 | 21.8 | 82% | 26 | 75.84 | 0.0 | ||||||
| 05 | 02:35 | NW 15 | 16.09 | Mostly Cloudy | BKN110 | 25.5 | 22.2 | 82% | 27 | 75.84 | 0.0 | ||||||
| 05 | 02:15 | NW 15 | 16.09 | Mostly Cloudy | BKN110 | 25.5 | 22.4 | 83% | 27 | 75.87 | 0.0 | ||||||
| 05 | 01:55 | NW 11 | 16.09 | Overcast | OVC110 | 25.5 | 22.3 | 27 | 25.5 | 83% | 27 | 75.87 | 0.0 | ||||
| 05 | 01:35 | NW 9 | 16.09 | Thunderstorm in Vicinity | OVC110 | 25.9 | 22.2 | 80% | 27 | 75.87 | 0.0 | ||||||
| 05 | 01:15 | NW 6 | 16.09 | Mostly Cloudy | BKN110 | 26 | 22.3 | 80% | 28 | 75.9 | 0.0 | ||||||
| 05 | 00:55 | NW 7 | 16.09 | Mostly Cloudy | BKN110 | 26.1 | 22.4 | 80% | 28 | 75.9 | 0.0 | ||||||
| 05 | 00:35 | W 7 | 16.09 | Mostly Cloudy | BKN110 | 26.3 | 22.4 | 79% | 28 | 75.92 | 0.0 | ||||||
| 05 | 00:15 | W 7 | 16.09 | Mostly Cloudy | BKN110 | 26.5 | 22.3 | 78% | 29 | 75.92 | 0.0 | ||||||
| 04 | 23:55 | W 6 | 16.09 | Mostly Cloudy | BKN110 | 26.6 | 22.1 | 76% | 29 | 75.92 | 0.0 | ||||||
| 04 | 23:35 | Calm | 16.09 | Mostly Cloudy | BKN110 | 26.5 | 22.1 | 77% | 28 | 75.92 | 0.0 | ||||||
| 04 | 23:15 | Calm | 16.09 | Mostly Cloudy | SCT095 BKN120 | 26.8 | 22.1 | 75% | 29 | 75.92 | 0.0 | ||||||
| 04 | 22:55 | Calm | 16.09 | Mostly Cloudy | SCT095 BKN110 | 26.7 | 22.4 | 77% | 29 | 75.92 | 0.0 | ||||||
| 04 | 22:35 | Calm | 16.09 | Mostly Cloudy | BKN110 | 25.9 | 22.6 | 82% | 28 | 75.92 | 0.0 | ||||||
| 04 | 22:15 | Calm | 16.09 | Mostly Cloudy | BKN120 | 26 | 22.6 | 82% | 28 | 75.92 | 0.0 | ||||||
| 04 | 21:45 | Calm | 16.09 | Mostly Cloudy | BKN110 | 26 | 23 | 84% | 28 | 75.9 | 0.0 | ||||||
| 04 | 20:45 | Calm | 16.09 | Mostly Cloudy | BKN110 | 27 | 22 | 74% | 29 | 75.9 | 0.0 | ||||||
| 04 | 19:45 | Calm | 16.09 | Partly Cloudy | SCT150 | 27 | 22 | 74% | 29 | 75.9 | 0.0 | ||||||
| 04 | 18:45 | S 6 | 16.09 | Fair | CLR | 28 | 22 | 70% | 31 | 75.87 | 0.0 | ||||||
| 04 | 17:45 | SW 7 | 16.09 | Partly Cloudy | FEW055 SCT150 | 29 | 21 | 62% | 31 | 75.92 | 0.0 | ||||||
| 04 | 16:45 | N 9 | 16.09 | Partly Cloudy | SCT055 | 31 | 19 | 49% | 32 | 75.97 | 0.0 | ||||||
| 04 | 15:45 | N 13 | 16.09 | Partly Cloudy | SCT050 SCT070 SCT110 | 32 | 18 | 43% | 33 | 75.95 | 0.0 | ||||||
| 04 | 14:45 | NW 13 | 16.09 | Partly Cloudy | SCT110 | 32 | 18 | 43% | 33 | 76.02 | 0.0 | ||||||
| 04 | 13:46 | N 7 | 16.09 | Partly Cloudy | SCT110 | 31 | 19 | 49% | 32 | 76.02 | 0.0 | ||||||
| 04 | 12:45 | NW 15 | 16.09 | A Few Clouds | FEW110 | 30 | 19 | 52% | 31 | 76.07 | 0.0 | ||||||
| 04 | 11:45 | NW 13 | 16.09 | A Few Clouds | FEW110 | 29 | 19 | 55% | 30 | 76.1 | 0.0 | ||||||
| 04 | 10:45 | N 11 G 26 | 16.09 | Partly Cloudy | SCT110 | 28 | 20 | 62% | 30 | 76.1 | 0.0 | ||||||
| 04 | 09:45 | NW 19 | 16.09 | Mostly Cloudy | BKN110 | 27 | 20 | 66% | 29 | 76.1 | 0.0 | ||||||
| 04 | 08:45 | NW 7 | 16.09 | Partly Cloudy | SCT120 | 25 | 21 | 79% | 26 | 76.12 | 0.0 | ||||||
| 04 | 07:45 | NW 6 | 16.09 | Partly Cloudy | SCT120 | 24 | 21 | 83% | 24 | 76.1 | 0.0 | ||||||
| 04 | 06:45 | Calm | 16.09 | Mostly Cloudy | SCT100 BKN110 | 23 | 21 | 89% | 76.05 | 0.0 | |||||||
| 04 | 05:45 | Calm | 16.09 | Fair | CLR | 23 | 21 | 89% | 76.05 | 0.0 | |||||||
| 04 | 05:15 | NW 6 | 16.09 | Partly Cloudy | SCT110 | 23.5 | 20.5 | 83% | 76.05 | 0.0 | |||||||
| 04 | 04:55 | W 6 | 16.09 | Mostly Cloudy | SCT085 BKN100 BKN120 | 23.6 | 20.5 | 83% | 76.05 | 0.0 | |||||||
| 04 | 04:35 | W 6 | 16.09 | Partly Cloudy | SCT085 SCT100 | 23.8 | 20.5 | 82% | 76.07 | 0.0 | |||||||
| 04 | 04:15 | W 7 | 16.09 | Fair | CLR | 23.8 | 20.6 | 82% | 76.02 | 0.0 | |||||||
| 04 | 03:55 | Calm | 16.09 | Partly Cloudy | SCT080 SCT120 | 23.8 | 20.8 | 83% | 76.05 | 0.0 | |||||||
| 04 | 03:35 | SW 9 | 16.09 | Fair | CLR | 23.8 | 20.6 | 82% | 76.05 | 0.0 | |||||||
| 04 | 03:15 | SW 6 | 16.09 | Fair | CLR | 24 | 20.5 | 81% | 24 | 76.05 | 0.0 | ||||||
| 04 | 02:55 | S 7 | 16.09 | Fair | CLR | 24 | 20.5 | 81% | 24 | 76.05 | 0.0 | ||||||
| 04 | 02:35 | Calm | 16.09 | Partly Cloudy | SCT120 | 24.3 | 20 | 77% | 25 | 76.02 | 0.0 | ||||||
| 04 | 02:15 | Calm | 16.09 | Partly Cloudy | SCT120 | 24.2 | 20 | 77% | 25 | 76 | 0.0 | ||||||
| 04 | 01:55 | NW 11 | 16.09 | Partly Cloudy | SCT120 | 24.5 | 19.8 | 27.6 | 24.5 | 75% | 25 | 76 | 0.0 | ||||
| 04 | 01:35 | W 9 | 16.09 | Thunderstorm in Vicinity | SCT110 | 24.8 | 20 | 75% | 26 | 76.02 | 0.0 | ||||||
| 04 | 01:15 | W 11 | 16.09 | Partly Cloudy | SCT120 | 25.7 | 20.3 | 72% | 27 | 76.02 | 0.0 | ||||||
| 04 | 00:55 | W 7 | 16.09 | Light Rain | CLR | 26.2 | 21.2 | 74% | 28 | 76 | 0.0 | 0.03 | |||||
| 04 | 00:35 | NW 19 G 26 | 16.09 | Thunderstorm Light Rain in Vicinity | SCT110 | 26.5 | 23.2 | 82% | 29 | 76.02 | 0.0 | ||||||
| 04 | 00:15 | NW 9 | 16.09 | Partly Cloudy | SCT110 | 26.1 | 22.9 | 83% | 28 | 76.07 | 0.0 | ||||||
| 03 | 23:55 | N 6 | 16.09 | Thunderstorm Light Rain | SCT060 SCT100 | 27.1 | 23 | 78% | 30 | 76 | 0.0 | ||||||
| 03 | 23:35 | NW 19 G 35 | 16.09 | Thunderstorm in Vicinity | SCT060 BKN100 | 27.4 | 23.9 | 81% | 31 | 76.05 | 0.0 | ||||||
| 03 | 23:15 | Calm | 16.09 | Thunderstorm in Vicinity | SCT110 | 26.2 | 24.5 | 90% | 29 | 76.05 | 0.0 | ||||||
| 03 | 22:55 | Calm | 16.09 | Partly Cloudy | SCT090 SCT110 | 26.7 | 25 | 90% | 30 | 76.05 | 0.0 | ||||||
| 03 | 22:35 | Calm | 16.09 | Partly Cloudy | SCT110 | 26.7 | 25 | 90% | 30 | 76.07 | 0.0 | ||||||
| 03 | 22:15 | Calm | 16.09 | Partly Cloudy | SCT120 | 26.8 | 25 | 90% | 30 | 76.05 | 0.0 | ||||||
| 03 | 21:45 | Calm | 16.09 | Fair | CLR | 27 | 25 | 89% | 31 | 76.05 | 0.0 | ||||||
| 03 | 20:45 | Calm | 16.09 | Fair | CLR | 27 | 25 | 89% | 31 | 76.07 | 0.0 | ||||||
| 03 | 19:45 | S 9 | 16.09 | Fair | CLR | 28 | 25 | 84% | 33 | 76.05 | 0.0 | ||||||
| 03 | 18:45 | S 9 | 16.09 | Fair | CLR | 30 | 22 | 62% | 33 | 76.02 | 0.0 | ||||||
| 03 | 17:45 | W 11 | 16.09 | Fair | CLR | 30 | 22 | 62% | 33 | 76.02 | 0.0 | ||||||
| 03 | 16:45 | Calm | 16.09 | Fair | CLR | 31 | 20 | 52% | 33 | 76.05 | 0.0 | ||||||
| 03 | 15:46 | W 15 | 16.09 | Partly Cloudy | SCT110 | 31 | 19 | 49% | 32 | 76.12 | 0.0 | ||||||
| 03 | 14:45 | NW 13 | 16.09 | Fair | CLR | 29 | 20 | 58% | 31 | 75.9 | 0.0 | ||||||
| 03 | 13:46 | W 17 | 16.09 | Partly Cloudy | SCT013 | 28 | 22 | 70% | 31 | 76.2 | 0.0 | ||||||
| 03 | 12:45 | S 6 | 16.09 | Light Rain | SCT035 SCT050 BKN110 | 26 | 24 | 89% | 28 | 76.2 | 0.0 | ||||||
| 03 | 09:45 | S 7 | 16.09 | Overcast | OVC007 | 25 | 23 | 89% | 26 | 76.25 | 0.0 | ||||||
| 03 | 08:45 | SW 11 | 16.09 | Overcast | BKN009 OVC120 | 24 | 23 | 94% | 23 | 76.35 | 0.0 | ||||||
| 03 | 08:25 | S 13 | 16.09 | Overcast | SCT012 OVC022 | 24 | 23 | 94% | 23 | 76.45 | 0.0 | ||||||
| 03 | 07:45 | Calm | 16.09 | Overcast | SCT006 OVC014 | 24 | 23 | 94% | 23 | 76.43 | 0.0 | ||||||
| 03 | 06:46 | Calm | 4.83 | Drizzle | BKN006 OVC012 | 24 | 23 | 94% | 23 | 76.38 | 0.0 | ||||||
| 03 | 06:38 | N 6 | 4.83 | Drizzle | BKN008 OVC014 | 24 | 23 | 94% | 23 | 76.38 | 0.0 | ||||||
| 03 | 05:45 | Calm | 16.09 | Overcast | BKN009 OVC016 | 25 | 23 | 89% | 26 | 76.35 | 0.0 | ||||||
| 03 | 05:15 | S 13 | 16.09 | Overcast | BKN009 OVC016 | 24.5 | 22.8 | 90% | 25 | 76.3 | 0.0 | ||||||
| 03 | 04:55 | SE 9 | 16.09 | Overcast | BKN009 OVC016 | 24.3 | 22.7 | 91% | 24 | 76.33 | 0.0 | ||||||
| 03 | 04:35 | SE 9 | 16.09 | Overcast | SCT007 OVC016 | 24.4 | 22.7 | 90% | 24 | 76.33 | 0.0 | ||||||
| 03 | 04:15 | SE 11 | 16.09 | Light Rain | SCT009 OVC014 | 24.4 | 22.8 | 91% | 24 | 76.33 | 0.0 | ||||||
| 03 | 03:55 | Calm | 16.09 | Overcast | SCT009 OVC014 | 24.3 | 22.7 | 91% | 24 | 76.33 | 0.0 | ||||||
| 03 | 03:35 | Calm | 16.09 | Light Rain | BKN016 OVC028 | 24.3 | 22.6 | 90% | 24 | 76.33 | 0.0 | ||||||
| 03 | 03:15 | Calm | 16.09 | Light Rain | BKN011 OVC016 | 24.5 | 22.5 | 89% | 25 | 76.33 | 0.0 | ||||||
| 03 | 02:55 | Calm | 16.09 | Overcast | OVC009 | 24.5 | 22.7 | 90% | 25 | 76.33 | 0.0 | ||||||
| 03 | 02:35 | SE 6 | 16.09 | Overcast | OVC007 | 24.5 | 22.9 | 91% | 25 | 76.3 | 0.0 | ||||||
| 03 | 02:15 | Calm | 16.09 | Overcast | BKN009 BKN014 OVC070 | 24.5 | 22.7 | 90% | 25 | 76.3 | 0.0 | ||||||
| 03 | 01:55 | Calm | 16.09 | Overcast | BKN009 BKN014 OVC075 | 24.3 | 22.5 | 24.3 | 22.5 | 90% | 24 | 76.3 | 0.0 | ||||
| 03 | 01:35 | S 9 | 16.09 | Overcast | SCT009 BKN014 OVC095 | 24.1 | 22.5 | 91% | 24 | 76.3 | 0.0 | ||||||
| 03 | 01:15 | SE 7 | 16.09 | Overcast | BKN012 BKN016 OVC095 | 24.2 | 22.5 | 90% | 24 | 76.33 | 0.0 | ||||||
| 03 | 00:55 | SE 6 | 16.09 | Overcast | SCT009 BKN013 OVC018 | 24.3 | 22.3 | 89% | 24 | 76.35 | 0.0 | ||||||
| 03 | 00:35 | SE 9 | 16.09 | Light Rain | SCT011 BKN016 OVC070 | 24.2 | 22.5 | 90% | 24 | 76.35 | 0.0 | ||||||
| 03 | 00:15 | SE 7 | 16.09 | Overcast | SCT018 BKN070 OVC100 | 24.1 | 22.3 | 90% | 24 | 76.35 | 0.0 | ||||||
| 02 | 23:55 | SE 6 | 16.09 | Thunderstorm in Vicinity | BKN018 OVC070 | 24.1 | 22.5 | 91% | 24 | 76.35 | 0.0 | ||||||
| 02 | 23:35 | SE 6 | 16.09 | Overcast | SCT012 OVC018 | 23.5 | 22.7 | 95% | 76.4 | 0.0 | |||||||
| 02 | 23:15 | Calm | 11.27 | Overcast | SCT010 OVC018 | 22.7 | 21.9 | 95% | 76.38 | 0.0 | |||||||
| 02 | 22:55 | Calm | 16.09 | Mostly Cloudy | SCT012 BKN019 BKN120 | 22.5 | 21.6 | 95% | 76.35 | 0.0 | |||||||
| 02 | 22:35 | Calm | 11.27 | Mostly Cloudy | SCT012 SCT021 BKN120 | 22.6 | 21.7 | 95% | 76.38 | 0.0 | |||||||
| 02 | 22:15 | Calm | 16.09 | Partly Cloudy | SCT120 | 23 | 22 | 94% | 76.4 | 0.0 | |||||||
| 02 | 19:47 | Calm | 16.09 | Mostly Cloudy | BKN013 BKN120 | 23 | 21 | 89% | 76.35 | 0.0 | |||||||
| 02 | 18:45 | Calm | 16.09 | Mostly Cloudy | BKN013 | 25 | 21 | 79% | 26 | 76.35 | 0.0 | ||||||
| 02 | 17:44 | Calm | 16.09 | Mostly Cloudy | BKN015 | 25 | 21 | 79% | 26 | 76.4 | 0.0 | ||||||
| 02 | 16:45 | Calm | 16.09 | Mostly Cloudy | BKN013 | 24 | 21 | 83% | 24 | 76.4 | 0.0 | ||||||
| 02 | 15:45 | W 6 | 16.09 | Mostly Cloudy | BKN011 | 24 | 21 | 83% | 24 | 76.35 | 0.0 | ||||||
| 02 | 14:45 | W 13 | 16.09 | Light Rain | SCT065 SCT080 SCT100 | 22 | 21 | 94% | 76.38 | 0.0 | |||||||
| 02 | 13:46 | Calm | 16.09 | Partly Cloudy | SCT085 | 22 | 21 | 94% | 76.58 | 0.0 | |||||||
| 02 | 12:45 | Calm | 16.09 | Overcast | OVC018 | 0 | 0 | 0% | 76.53 | 0.0 | |||||||
| 02 | 11:45 | SE 13 | 16.09 | Overcast | OVC015 | 27 | 21 | 70% | 29 | 76.48 | 0.0 | ||||||
| 02 | 10:45 | E 7 | 16.09 | Overcast | OVC017 | 26 | 21 | 74% | 27 | 76.5 | 0.0 | ||||||
| 02 | 08:45 | SE 7 | 16.09 | Mostly Cloudy | BKN009 | 25 | 22 | 83% | 26 | 76.45 | 0.0 | ||||||
| 02 | 07:45 | E 6 | 16.09 | Mostly Cloudy | BKN007 | 24 | 22 | 89% | 24 | 76.4 | 0.0 | ||||||
| 02 | 06:45 | Calm | 16.09 | Partly Cloudy | SCT110 | 23 | 21 | 89% | 76.4 | 0.0 | |||||||
| 02 | 05:45 | Calm | 16.09 | Partly Cloudy | SCT120 | 23 | 21 | 89% | 76.35 | 0.0 | |||||||
| 02 | 05:15 | Calm | 16.09 | Partly Cloudy | SCT110 | 23.3 | 21.5 | 90% | 76.35 | 0.0 | |||||||
| 02 | 04:55 | Calm | 16.09 | Partly Cloudy | SCT120 | 23.2 | 21.3 | 89% | 76.35 | 0.0 | |||||||
| 02 | 04:35 | Calm | 16.09 | Partly Cloudy | SCT120 | 24 | 21.8 | 88% | 24 | 76.35 | 0.0 | ||||||
| 02 | 04:15 | Calm | 16.09 | Partly Cloudy | SCT120 | 23.7 | 21.8 | 89% | 76.35 | 0.0 | |||||||
| 02 | 03:55 | Calm | 16.09 | Mostly Cloudy | BKN120 | 23.3 | 21.7 | 91% | 76.35 | 0.0 | |||||||
| 02 | 03:35 | Calm | 16.09 | Mostly Cloudy | BKN120 | 23.3 | 21.6 | 90% | 76.35 | 0.0 | |||||||
| Date | Time (edt) | Wind (kph) | Vis. (km) | Weather | Sky Cond. | Air | Dwpt | Max. | Min. | Relative Humidity | Wind Chill (°C) | Heat Index (°C) | altimeter (cm) | sea level (mb) | 1 hr | 3 hr | 6 hr |
| 6 hour | |||||||||||||||||
| Temperature (ºC) | Pressure | Precipitation (cm) | |||||||||||||||